Home > Weather > Hamilton > Past weeks

Flag for Bermuda Weather for the Past 2 Weeks in Hamilton, Bermuda

Now
75 °F

Scattered clouds.


Feels Like: 77 °F
Forecast: 69 / 74 °F
Wind: 16 mph from West

Location: Bermuda

Current Time: Apr 30, 2016 at 4:56:16 PM

Latest Report: Apr 30, 2016 at 3:55 PM


Visibility: N/A

Pressure: 29.95 "Hg

Humidity: 74%

Dew Point: 66 °F

Location of HamiltonLocation

Historic Weather in Hamilton — Graph

°F

Hamilton Temperature Yesterday

Maximum temperature yesterday: 73 °F (at 1:55 PM)
Minimum temperature yesterday: 68 °F (at 1:55 AM)
Average temperature yesterday: 70 °F

High & Low Weather Summary for the Past Weeks

 TemperatureHumidityPressure
High75 °F (Apr 30, 11:55 AM)88% (Apr 24, 7:55 AM)30.24 "Hg (Apr 24, 7:55 AM)
Low59 °F (Apr 20, 9:55 PM)49% (Apr 16, 10:55 AM)29.68 "Hg (Apr 24, 3:55 PM)
Average67 °F69%29.97 "Hg
* Reported Apr 15 2:55 PM — Apr 30 2:55 PM, Hamilton, Weather by CustomWeather, © 2016

Note: Actual official high and low records may vary slightly from our data, if they occured in-between our weather recording intervals... More about our weather records

Advertising

Hamilton Weather History for the Previous 24 Hours

Scroll right to see more
 ConditionsComfort  
Time TempWeatherWind HumidityBarometerVisibility
2:55 PM
Sat, Apr 30
75 °FScattered clouds.16 mph74%30.01 "HgN/A
1:55 PM75 °FScattered showers. Broken clouds.14 mph78%30.01 "HgN/A
12:55 PM75 °FScattered clouds.16 mph78%30.01 "HgN/A
11:55 AM75 °FScattered clouds.17 mph78%30.01 "HgN/A
10:55 AM73 °FScattered clouds.16 mph78%30.01 "HgN/A
9:55 AM73 °FBroken clouds.16 mph78%30.01 "HgN/A
8:55 AM73 °FBroken clouds.16 mph83%30.01 "HgN/A
7:55 AM72 °FScattered showers. Broken clouds.13 mph88%30.01 "HgN/A
6:55 AM70 °FPartly cloudy.10 mph88%30.01 "HgN/A
5:55 AM68 °FPassing clouds.13 mph88%29.98 "HgN/A
4:55 AM68 °FPartly cloudy.16 mph88%29.98 "HgN/A
4:00 AM68 °FScattered showers. Overcast.10 mph88%30.01 "HgN/A
2:55 AM70 °FPassing clouds.10 mph88%30.01 "HgN/A
1:55 AM70 °FPartly cloudy.6 mph88%30.04 "HgN/A
12:55 AM70 °FPassing clouds.7 mph88%30.04 "HgN/A
11:55 PM
Fri, Apr 29
70 °FPassing clouds.9 mph88%30.04 "HgN/A
10:55 PM70 °FPassing clouds.9 mph88%30.04 "HgN/A
9:55 PM70 °FPassing clouds.8 mph83%30.04 "HgN/A
8:55 PM70 °FPassing clouds.7 mph83%30.01 "HgN/A
7:55 PM70 °FPassing clouds.7 mph83%30.01 "HgN/A
6:55 PM72 °FPassing clouds.7 mph78%30.01 "HgN/A
5:55 PM73 °FBroken clouds.7 mph74%30.01 "HgN/A
4:55 PM73 °FBroken clouds.7 mph69%30.01 "HgN/A
Weather by CustomWeather, © 2016

See weather overviewHow to use our weather pages